Вернуться в каталог

STARLINK-6194

АктивенСвязьVLEO
NORAD 57077·PAYLOAD·🇺🇸 United States

Запущен Jun 22, 2023 с Vandenberg Space Force Base

Loading…

Ближайшие Пролёты (ближайшие 24 часа)

TLE

СвежийSource: CelesTrak SupGP

Эпоха: Sep 15, 2026, 02:23 UTC

1 57077C 23088AF  26258.09979167  .00038728  00000+0  14024-2 0  2586
2 57077  43.0021 106.8040 0001382 276.0799  94.8255 15.27566652    10

Отслеживайте STARLINK-6194 в реальном времени с AllMySat

Download on the App Store